Address 0x5941e781413f8317c80bd0b0da7c88011656ee21

 
Txn Hash Method
Block
From
To
Value [Txn Fee]
0x7cdceea9e2048a6ae53ca95d46a49fbc205774b0736cbf63f66dad8de8409a80Distribute221999912021-12-06 11:40:3637 mins ago0x5941e781413f8317c80bd0b0da7c88011656ee21OUT 0x250efbb94de68dd165bd6c98e804e08153eb91c60 MATIC0.013586166
0xc50f648c39ba3c50da22ee7b4d8571ec8ab293a8c356e4dc8ae6488b6d8489f7Distribute221999912021-12-06 11:40:3637 mins ago0x5941e781413f8317c80bd0b0da7c88011656ee21OUT 0xa152715df800db5926598917a6ef3702308bcb7e0 MATIC0.032100552
0x4fa40b2f45240212eeb69304a6f97e19a7d046ba4967b025eb7ba787060f501cDistribute221999912021-12-06 11:40:3637 mins ago0x5941e781413f8317c80bd0b0da7c88011656ee21OUT 0xe093d8a4269ce5c91cd9389a0646badab2c8d9a30 MATIC0.032399763
0x94ebdddcb66fed2d3eb57e286e6372d64c63126b6f578740788ca1a004d6f4fbDistribute221999912021-12-06 11:40:3637 mins ago0x5941e781413f8317c80bd0b0da7c88011656ee21OUT 0x93d2d0812c9856141b080e9ef6e97c7a7b342d7f0 MATIC0.014091363
0xf71239307492ac11ed602cf3b262bc91419ebe51d0257b4d3388ded3af1d66d8Distribute221999912021-12-06 11:40:3637 mins ago0x5941e781413f8317c80bd0b0da7c88011656ee21OUT 0x0a70fbb45bc8c70fb94d8678b92686bb69dea3c30 MATIC0.031585323
0xf062c307108cbecd5d1eee0aca3044b31e27f8e8f045cef325c6e51d21d8f562Distribute221999912021-12-06 11:40:3637 mins ago0x5941e781413f8317c80bd0b0da7c88011656ee21OUT 0x9bef427fa1ff5269b824eed9415f7622b81244f50 MATIC0.031968618
0xdda1118201b1e083ce153fa3177f00610983c0493daf2b1f1846f6456553a227Distribute221999912021-12-06 11:40:3637 mins ago0x5941e781413f8317c80bd0b0da7c88011656ee21OUT 0xc89583fa7b84d81fe54c1339ce3feb10de8b4c960 MATIC0.016362621
0x96476e7ebcba217155030ec42d8e8e69af05bd9bc72506701da678db6c7d7cf5Distribute221999912021-12-06 11:40:3637 mins ago0x5941e781413f8317c80bd0b0da7c88011656ee21OUT 0xdc19ed26ad3a544e729b72b50b518a231cbad9ab0 MATIC0.035330592
0x371ae0e11dc9497de776a73495a506809dac13c46efe03ab9b7ea8c6fd2f1285Distribute221999912021-12-06 11:40:3637 mins ago0x5941e781413f8317c80bd0b0da7c88011656ee21OUT 0x94e5b18309066dd1e5ae97628afc9d4d7eb581610 MATIC0.032943999
0x4526266a804a0dd78d697731d781428ef5424827910ea80a2332d6c3a29c867aDistribute221999912021-12-06 11:40:3637 mins ago0x5941e781413f8317c80bd0b0da7c88011656ee21OUT 0x47de4fd666373ca4a793e2e0e7f995ea7d3c9a290 MATIC0.033538098
0x6a04bd3aaa067a9e136bab0c8842acca1de3e8fa316c0d2b9d51168c17f59e8aDistribute221999912021-12-06 11:40:3637 mins ago0x5941e781413f8317c80bd0b0da7c88011656ee21OUT 0x71f649eb05aa48cf8d92328d1c486b7d9fdbff6b0 MATIC0.03541032
0x5c053a6d3b7dfb38074ffe8138626b1b43c3062f192e5ee33d79ce31ae91616aDistribute221999912021-12-06 11:40:3637 mins ago0x5941e781413f8317c80bd0b0da7c88011656ee21OUT 0x3941e2e89f7047e0ac7b9cce18fbe90927a321000 MATIC0.035381841
0x129d608edf4417f706bd3ac8566a52d4b4e6720b2d98527c41ef3158fa02ad3dDistribute221999902021-12-06 11:40:3437 mins ago0x5941e781413f8317c80bd0b0da7c88011656ee21OUT 0x8082ab2f4e220dad92689f3682f3e7a42b206b420 MATIC0.033654423
0x0f844dde782fb0761f1e6af56a4c0ae47aa8f0a31bdf188f7f71939b59cf72a8Distribute221999902021-12-06 11:40:3437 mins ago0x5941e781413f8317c80bd0b0da7c88011656ee21OUT 0xe0a0ec8dee2f73943a6b731a2e11484916f45d440 MATIC0.036317358
0x8d9e0e6159c59430f1518e620462d22301ba6022b3b40f35be53f82bd8bafbacDistribute221999902021-12-06 11:40:3437 mins ago0x5941e781413f8317c80bd0b0da7c88011656ee21OUT 0x27c7d067a0c143990ec6ed2772e7136cfcfaecd60 MATIC0.035366133
0xd6013bb94f12a0fd9c283fddc5fab9708f56348e9d7f7579015b0a0b24836533Distribute221999902021-12-06 11:40:3437 mins ago0x5941e781413f8317c80bd0b0da7c88011656ee21OUT 0x5786d3754443c0d3d1ddea5bb550ccc476fdf11d0 MATIC0.035369796
0x5feaf9a3033ca95631d8c2c6088509a618b9c907e39c166ceb7248b9d5c6c560Distribute221985442021-12-06 10:46:331 hr 31 mins ago0x5941e781413f8317c80bd0b0da7c88011656ee21OUT 0x250efbb94de68dd165bd6c98e804e08153eb91c60 MATIC0.031481406
0xacc949a92f67a6b6797064cf1fbb4c59ef77ab35c1ea2b32f705c95412abfdcaDistribute221985442021-12-06 10:46:331 hr 31 mins ago0x5941e781413f8317c80bd0b0da7c88011656ee21OUT 0xa152715df800db5926598917a6ef3702308bcb7e0 MATIC0.032100552
0xb7c472bc39eadb88305a7701fcd26b1d9e5c3f92f8ca16aada652e31872f628bDistribute221985442021-12-06 10:46:331 hr 31 mins ago0x5941e781413f8317c80bd0b0da7c88011656ee21OUT 0xe093d8a4269ce5c91cd9389a0646badab2c8d9a30 MATIC0.014186799
0x7b6d38ed60c863ea849c05b010c484dc478cf650c6f32b2be46ea4fff27f5c17Distribute221985432021-12-06 10:46:311 hr 32 mins ago0x5941e781413f8317c80bd0b0da7c88011656ee21OUT 0x93d2d0812c9856141b080e9ef6e97c7a7b342d7f0 MATIC0.031713825
0x54bc06cc5f1e94b45573cb8f6977de1afba1fa4e65a01505f8d910c90a80aa12Distribute221985432021-12-06 10:46:311 hr 32 mins ago0x5941e781413f8317c80bd0b0da7c88011656ee21OUT 0x0a70fbb45bc8c70fb94d8678b92686bb69dea3c30 MATIC0.031933803
0x2d382747b609822230f2c5139336ee15db0252ae8bedfafc9ab4b1279e3cac3cDistribute221984912021-12-06 10:42:191 hr 36 mins ago0x5941e781413f8317c80bd0b0da7c88011656ee21OUT 0x9bef427fa1ff5269b824eed9415f7622b81244f50 MATIC0.031968618
0xbcbfade5f55f67f3ffe0c8212f9ca4ce2497105c0d6513f99e1feb9530eca9fbDistribute221984912021-12-06 10:42:191 hr 36 mins ago0x5941e781413f8317c80bd0b0da7c88011656ee21OUT 0xc89583fa7b84d81fe54c1339ce3feb10de8b4c960 MATIC0.016711101
0x24709db08fa3c295f385ff72198b123fd6c967cab8286f04e29187cfc680c890Distribute221984892021-12-06 10:42:071 hr 36 mins ago0x5941e781413f8317c80bd0b0da7c88011656ee21OUT 0xdc19ed26ad3a544e729b72b50b518a231cbad9ab0 MATIC0.037035735
0x73897b15e2b1bc116fbd0cfe77dd7c180f18c8d99419ad1def4e7d37f50981d1Distribute221984862021-12-06 10:41:491 hr 36 mins ago0x5941e781413f8317c80bd0b0da7c88011656ee21OUT 0x94e5b18309066dd1e5ae97628afc9d4d7eb581610 MATIC0.033292479
[ Download CSV Export 
Parent Txn Hash Block From To Value
Loading

Contract Name:
0 MATIC

Compiler Version
0

Optimization Enabled:
0 MATIC

Other Settings:
-NA-
Block Transaction Gas Used Reward
Age Block Fee Address BC Fee Address Voting Power Jailed Incoming
Block Uncle Number Difficulty Gas Used Reward
Loading
Loading
Make sure to use the "Vote Down" button for any spammy posts, and the "Vote Up" for interesting conversations.